Regional Weather Roundup
Issued by NWS

Home | Current Version | Previous Version | Graphics & Text | Print | Product List | Glossary On
Versions: 1 2 3 4 5 6 7 8 9 10 11 12 13 14 15 16 17 18 19 20 21 22 23 24 25 26 27 28 29 30 31 32 33 34 35 36 37 38 39 40 41 42 43 44 45 46 47 48 49 50
959
ASUS44 KJAN 291710
RWRMS

MISSISSIPPI HOURLY WEATHER ROUNDUP
NATIONAL WEATHER SERVICE JACKSON MS
1100 AM CST THU JAN 29 2015

NOTE: "FAIR: INDICATES FEW OR NO CLOUDS BELOW 12,000 FEET WITH NO
SIGNIFICANT WEATHER AND/OR OBSTRUCTIONS TO VISIBILITY.

MSZ001>002-007>008-010>013-018>021-025>028-034>036-291800-
NORTHWEST MISSISSIPPI

CITY           SKY/WX    TMP DP  RH WIND       PRES   REMARKS
CLARKSDALE     FAIR      59  50  72 SW12      30.14S
CLEVELAND      FAIR      61  53  75 SW17      30.15F
GREENWOOD      PTSUNNY   64  48  56 SW14G24   30.16F
GREENVILLE     PTSUNNY   62  50  64 SW15      30.15F
GRENADA        PTSUNNY   63  46  55 W13G21    30.15F
OLIVE BRANCH   PTSUNNY   59  48  67 SW15G21   30.12R
OXFORD         FAIR      61  45  55 W15G21    30.15S
TUNICA         PTSUNNY   61  48  63 SW13      30.13S
$$

MSZ003>006-009-014>017-022>024-029>033-037>039-291800-
NORTHEAST MISSISSIPPI

CITY           SKY/WX    TMP DP  RH WIND       PRES   REMARKS
COLUMBUS AFB   PTSUNNY   59  43  54 SW14G22   30.17F
CORINTH        FAIR      59  41  51 SW10      30.10F
GOLDN TRIANGLE SUNNY     61  46  59 S12G18    30.17F
STARKVILLE     FAIR      64  48  55 SW12G17   30.17F
TUPELO         PTSUNNY   57  39  51 SW10      30.14F
$$

MSZ040-058-291800-
CENTRAL MISSISSIPPI

CITY           SKY/WX    TMP DP  RH WIND       PRES   REMARKS
JACKSON INTL   MOSUNNY   67  53  61 S10       30.20F
JACKSON HAWKNS SUNNY     67  52  58 S13       30.20
MERIDIAN KEY   MOSUNNY   63  47  55 SW15      30.22F
MERIDIAN NAS   PTSUNNY   65  47  52 SW9G24    30.22F
RAYMOND        FAIR      66  61  82 SW12G21   30.20F
VICKSBURG      SUNNY     65  53  65 SW10G17   30.21S
$$

MSZ059>079-291800-
SOUTH MISSISSIPPI

CITY           SKY/WX    TMP DP  RH WIND       PRES   REMARKS
BROOKHAVEN     FAIR      66  57  72 SW15      30.25S
HATTIESBURG    PTSUNNY   67  49  52 S10       30.27S
MCCOMB         MOSUNNY   66  55  67 SW12      30.25F
NATCHEZ        MOSUNNY   64  57  77 SW10G17   30.25R
PINE BELT      CLOUDY    64  48  55 S9G16     30.27F
$$

MSZ080>082-291800-
COASTAL MISSISSIPPI

CITY           SKY/WX    TMP DP  RH WIND       PRES   REMARKS
BAY ST LOUIS   SUNNY     70  46  43 S9        30.28R
BILOXI         SUNNY     67  54  62 S7        30.29R
PASCAGOULA     SUNNY     68  51  54 SW10      30.29R
GULFPORT       SUNNY     66  51  58 S9        30.28R
$$



USA.gov is the U.S. government's official web portal to all federal, state and local government web resources and services.